Other Public Products
Issued by NWS Charleston, SC

Current Version | Previous Version | Graphics & Text | Print | Product List | Glossary On
Versions: 1 2 3 4 5 6 7 8 9 10 11 12 13 14 15 16 17 18 19 20 21 22 23 24 25 26 27 28 29 30 31 32 33 34 35 36 37 38 39 40 41 42 43 44 45 46 47 48 49 50
000
FPUS82 KCHS 220712
OPUCHS

TEST...KCHS/KSAV Gateway Observations...TEST
National Weather Service Charleston SC
200 AM EST MON JAN 22 2018

NOTE: "fair" indicates few or no clouds below 12,000 feet with no
significant weather and/or obstructions to visibility.

SCZ050-WAZ558-NCZ071-TXZ119-213-PAZ071-DCZ001-FLZ074-172-MI076-
NYZ176-178-MAZ016-IL014-TNZ027-NJZ106-GAZ044-MD014-220800-

...Gateway Observations for Charleston International...

CITY           SKY/WX    TMP DP  RH WIND       PRES   REMARKS
Chas Airport   FAIR      43  41  93 CALM      30.20F
Seattle        MOCLDY    44  37  76 S12       30.03R
Charlotte      FAIR      47  40  76 CALM      30.18F
Dallas DFW     PTCLDY    57  19  22 W9        29.82S
Dallas Love    PTCLDY    59  16  18 SW6       29.84S
Philladelphia  MOCLDY    45  35  68 NW8       30.15R
Wash National  CLOUDY    53  41  63 S8        30.14S
Baltimore      CLOUDY    44  39  82 CALM      30.12S
Miami          FAIR      73  67  81 E12       30.09F
Detroit        LGT RAIN  38  38 100 NE5       29.96F VSB 1/4 WCI  34
Newark         LGT RAIN  44  38  79 CALM      30.15F
Laguardia      CLOUDY    40  34  79 NE7       30.14F WCI  35
J F K          LGT RAIN  42  40  92 E6        30.16S
Boston Logan   CLOUDY    35  32  88 SE6       30.19S WCI  30
Ft. Lauderdale FAIR      72  68  87 E15       30.09F
Chicago O`Hare FOG       45  43  93 SE5       29.78F VSB 1/8
Chicago Midway FOG       48  48 100 S3        29.79F VSB 1/4
Houston Bush   MOCLDY    68  67  96 SW8       29.89F
Houston Hobby  CLOUDY    67  67 100 S9        29.89F
Nashville      MOCLDY    58  43  57 S13       30.00F
Atlanta        CLOUDY    51  43  74 SE5       30.13F

$$

GAZ044-118-TXZ119-213-NCZ071-DCZ001-MDZ014-506-PAZ021-071-NJZ106-
NYZ176-178-MAZ106-OHZ011-021-055-MIZ076-KYZ091-ILZ014-INZ047-
MNZ060-ONZ431-220800-

...Gateway Observations for Savannah International...

CITY           SKY/WX    TMP DP  RH WIND       PRES   REMARKS
Savannah Arpt  FAIR      42  40  92 N3        30.19F
Atlanta        CLOUDY    51  43  74 SE5       30.13F
Charlotte      FAIR      47  40  76 CALM      30.18F
Dallas DFW     PTCLDY    57  19  22 W9        29.82S
Houston Bush   MOCLDY    68  67  96 SW8       29.89F
Wash National  CLOUDY    53  41  63 S8        30.14S
Wash Dulles    MOCLDY    51  43  74 S10       30.12S
Baltimore      CLOUDY    44  39  82 CALM      30.12S
Philadelphia   MOCLDY    45  35  68 NW8       30.15R
Newark         LGT RAIN  44  38  79 CALM      30.15F
Laguardia      CLOUDY    40  34  79 NE7       30.14F WCI  35
J F K          LGT RAIN  42  40  92 E6        30.16S
Boston         CLOUDY    35  32  88 SE6       30.19S WCI  30
Pittsburg      CLOUDY    44  44 100 SE3       30.05S
Akron          FOG       44  42  93 S7        30.01F VSB 1/16
Cleveland      CLOUDY    48  46  93 S8        30.02F
Cincinnati     CLOUDY    50  47  89 S9        29.96F
Columbus       CLOUDY    45  45 100 SE5       29.99F
Detroit        LGT RAIN  38  38 100 NE5       29.96F VSB 1/4 WCI  34
Chicago O`Hare FOG       45  43  93 SE5       29.78F VSB 1/8
Minneapolis    CLOUDY    35  30  82 N10       29.90F WCI  27
Indianapolis   CLOUDY    49  48  97 SE7       29.89F
Toronto Canada DRZL/FOG  36  34  93 NE3       30.06R VSB 1

$$




USA.gov is the U.S. government's official web portal to all federal, state and local government web resources and services.